2023/02/03 00:00:00,43.8,-0.3
2023/02/03 00:10:00,43.8,-0.0
2023/02/03 00:20:00,43.8,-0.2
2023/02/03 00:30:00,43.9,-0.2
2023/02/03 00:40:00,44.0,-0.3
2023/02/03 00:50:00,43.8,-0.4
2023/02/03 01:00:00,43.7,-0.2
2023/02/03 01:10:00,43.7,-0.3
2023/02/03 01:20:00,43.6,-0.3
2023/02/03 01:30:00,43.6,-0.4
2023/02/03 01:40:00,43.5,-0.4
2023/02/03 01:50:00,43.5,-0.6
2023/02/03 02:00:00,43.4,-0.9
2023/02/03 02:10:00,43.4,-0.7
2023/02/03 02:20:00,43.4,-0.2
2023/02/03 02:30:00,43.4,-0.7
2023/02/03 02:40:00,43.3,-0.4
2023/02/03 02:50:00,43.3,-0.1
2023/02/03 03:00:00,43.2,-0.3
2023/02/03 03:10:00,43.2,-0.3
2023/02/03 03:20:00,43.1,-0.2
2023/02/03 03:30:00,43.1,-0.8
2023/02/03 03:40:00,43.1,-1.0
2023/02/03 03:50:00,43.0,-0.8
2023/02/03 04:00:00,43.1,-0.6
2023/02/03 04:10:00,43.0,-0.6
2023/02/03 04:20:00,43.0,-0.8
2023/02/03 04:30:00,43.0,-0.2
2023/02/03 04:40:00,43.0,-0.6
2023/02/03 04:50:00,42.9,-0.5
2023/02/03 05:00:00,42.9,-0.6
2023/02/03 05:10:00,42.9,-0.2
2023/02/03 05:20:00,42.9,-0.5
2023/02/03 05:30:00,42.9,-0.6
2023/02/03 05:40:00,43.0,-0.8
2023/02/03 05:50:00,43.0,-0.7
2023/02/03 06:00:00,43.0,-0.6
2023/02/03 06:10:00,43.0,-0.6
2023/02/03 06:20:00,43.0,-0.2
2023/02/03 06:30:00,43.0,-0.6
2023/02/03 06:40:00,43.0,-0.9
2023/02/03 06:50:00,43.0,-0.8
2023/02/03 07:00:00,42.9,-0.4
2023/02/03 07:10:00,42.9,-0.1
2023/02/03 07:20:00,42.9,-0.0
2023/02/03 07:30:00,42.9, 0.3
2023/02/03 07:40:00,42.8, 0.2
2023/02/03 07:50:00,42.8, 0.3
2023/02/03 08:00:00,42.8, 0.4
2023/02/03 08:10:00,42.8, 0.5
2023/02/03 08:20:00,42.8, 0.6
2023/02/03 08:30:00,42.7, 0.7
2023/02/03 08:40:00,42.7, 0.9
2023/02/03 08:50:00,42.6, 1.2
2023/02/03 09:00:00,42.6, 1.3
2023/02/03 09:10:00,42.6, 1.6
2023/02/03 09:20:00,42.5, 2.1
2023/02/03 09:30:00,42.4, 2.1
2023/02/03 09:40:00,42.5, 2.4
2023/02/03 09:50:00,42.4, 2.6
2023/02/03 10:00:00,42.3, 2.6
2023/02/03 10:10:00,42.3, 2.6
2023/02/03 10:20:00,42.2, 2.7
2023/02/03 10:30:00,42.1, 3.0
2023/02/03 10:40:00,42.1, 3.2
2023/02/03 10:50:00,42.1, 3.1
2023/02/03 11:00:00,42.3, 3.6
2023/02/03 11:10:00,42.1, 3.7
2023/02/03 11:20:00,41.9, 3.8
2023/02/03 11:30:00,41.9, 3.9
2023/02/03 11:40:00,41.9, 4.3
2023/02/03 11:50:00,41.7, 4.4
2023/02/03 12:00:00,41.6, 4.0
2023/02/03 12:10:00,41.6, 4.4
2023/02/03 12:20:00,41.6, 4.5
2023/02/03 12:30:00,41.6, 4.0
2023/02/03 12:40:00,41.7, 4.5
2023/02/03 12:50:00,41.8, 4.5
2023/02/03 13:00:00,41.6, 4.5
2023/02/03 13:10:00,41.6, 4.8
2023/02/03 13:20:00,41.4, 4.8
2023/02/03 13:30:00,41.3, 4.7
2023/02/03 13:40:00,41.1, 4.2
2023/02/03 13:50:00,40.9, 4.2
2023/02/03 14:00:00,40.6, 4.4
2023/02/03 14:10:00,40.5, 4.7
2023/02/03 14:20:00,40.5, 4.3
2023/02/03 14:30:00,40.6, 3.9
2023/02/03 14:40:00,40.8, 4.2
2023/02/03 14:50:00,40.5, 4.2
2023/02/03 15:00:00,40.5, 3.9
2023/02/03 15:10:00,40.6, 3.7
2023/02/03 15:20:00,40.4, 3.8
2023/02/03 15:30:00,40.4, 3.3
2023/02/03 15:40:00,40.3, 3.7
2023/02/03 15:50:00,40.2, 3.2
2023/02/03 16:00:00,40.1, 3.0
2023/02/03 16:10:00,40.1, 2.8
2023/02/03 16:20:00,40.1, 2.7
2023/02/03 16:30:00,40.1, 2.7
2023/02/03 16:40:00,40.1, 2.4
2023/02/03 16:50:00,40.0, 2.7
2023/02/03 17:00:00,40.1, 2.3
2023/02/03 17:10:00,40.1, 2.1
2023/02/03 17:20:00,40.1, 2.0
2023/02/03 17:30:00,40.0, 2.0
2023/02/03 17:40:00,40.0, 1.6
2023/02/03 17:50:00,40.0, 1.8
2023/02/03 18:00:00,39.9, 1.7
2023/02/03 18:10:00,39.8, 1.6
2023/02/03 18:20:00,39.7, 1.3
2023/02/03 18:30:00,39.7, 1.1
2023/02/03 18:40:00,39.6, 1.4
2023/02/03 18:50:00,39.7, 1.2
2023/02/03 19:00:00,39.6, 1.3
2023/02/03 19:10:00,39.5, 1.4
2023/02/03 19:20:00,39.5, 1.2
2023/02/03 19:30:00,39.6, 1.2
2023/02/03 19:40:00,39.6, 1.1
2023/02/03 19:50:00,39.6, 0.6
2023/02/03 20:00:00,39.5, 1.2
2023/02/03 20:10:00,39.6, 1.2
2023/02/03 20:20:00,39.6, 1.2
2023/02/03 20:30:00,39.5, 1.3
2023/02/03 20:40:00,39.5, 0.8
2023/02/03 20:50:00,39.5, 1.0
2023/02/03 21:00:00,39.5, 0.8
2023/02/03 21:10:00,39.5, 0.4
2023/02/03 21:20:00,39.5, 0.6
2023/02/03 21:30:00,39.4, 0.4
2023/02/03 21:40:00,39.5, 0.5
2023/02/03 21:50:00,39.5, 0.4
2023/02/03 22:00:00,39.4, 0.3
2023/02/03 22:10:00,39.4, 0.6
2023/02/03 22:20:00,39.4, 0.2
2023/02/03 22:30:00,39.3, 0.2
2023/02/03 22:40:00,39.3, 0.2
2023/02/03 22:50:00,39.3, 0.1
2023/02/03 23:00:00,39.3, 0.2
2023/02/03 23:10:00,39.3,-0.1
2023/02/03 23:20:00,39.3, 0.3
2023/02/03 23:30:00,39.3, 0.2
2023/02/03 23:40:00,39.3,-0.1
2023/02/03 23:50:00,39.3, 0.1
